Showing default

USA 308, 45876

Orbit data source: McCants

USA 308, 45876 is a payload satellite owned by NRO (US) in LEO that was launched on Wed, 15 Jul 2020 UTC via an MINOTAUR IV launch vehicle from the Wallops Island (WLPIS). Payloads include a variety of satellites, spacecraft, and rockets equipped with specific instruments for various scientific and technological missions. These include communications satellites like Starlink; space stations such as the ISS; scientific satellites like the Hubble; Earth observation satellites from companies like Planet Labs, Umbra, and HawkEye 360; GPS; miniature CubeSats for education and research; and military/defense satellites.

Not visible in the next 10 days
USA 308 details
Identifier
45876, 2020-046D
Orbit
LEO
Last TLE update2 years ago
Origin
Flag of USNRO (US)
ManufacturerBALL?
MissionOperational Defense Classified
Bus & MotorBCP-2000?, AOCS
Mass~250 kg wet, ~200 kg dry
Launch date (UTC)
2020-07-15 (4 years ago)
Launch vehicle
MINOTAUR IV
Launch site
Wallops Island (WLPIS)
Object type
Payload
Rocket body
Debris
Shape & HBRBox + 2 Pan, 10 m
Radar Cross Section16.139 m²

Expand to show TLE details & history

TLE from 2 years ago
USA 308
1 45876U 20046D   23073.79575234 0.00128000  00000-0  51918-2 0    09
2 45876  53.9670   2.4862 0000264 308.9066  50.7384 15.24118401    02
Epoch: 2023-03-14T19:05Z
Definitive object data (Epoch: 2023-03-14T19:05:53.002Z)
Latitude-0.36901°
Longitude-96.39387°
Altitude494.351 km
Speed7.619 km/s
True Right ascension00h 08m 52s
True Declination0° 22' 00"
Sunlit
Object was in daylight at TLE epoch
Visualization observer readout
Observer readout values are unavailable because the object's trajectory could not be propagated. This is usually caused when the trajectory data is faulty or the object's orbit has decayed.
Visualization observer readout
Observer readout values are unavailable because the object's trajectory could not be propagated. This is usually caused when the trajectory data is faulty or the object's orbit has decayed.
Orbital elements
Apogee altitude493.742 km
Perigee altitude493.379 km
Semi-major axis6,871.697 km
Eccentricity0.0000264
Inclination53.967°
RAAN2.4862°
Arg. of periapsis308.9066°
True anomaly50.74074°
Mean anomaly50.7384°
Eccentric anomaly50.73957°
Mean motion3.81019 °/min
BSTAR0.0051918
Orbital period94.48 mins
Loading maneuver chart data...
Loading historical data...
Loading historical data...
Loading historical data...
Loading historical data...
Loading historical data...
Loading historical data...
Loading historical data...

USA 308 Visibility forecast

Observer location: undefined°, undefined

USA 308 is not visible in the next 10 days
Span
Click to sort rows by Start time (UTC) header in descending order
Start Az.
Max El. time (UTC)
Max El. Az.
Max El.
End time (UTC)
End Az.
|